Regional Weather Roundup
Issued by NWS

Home | Current Version | Previous Version | Text Only | Print | Product List | Glossary On
Versions: 1 2 3 4 5 6 7 8 9 10 11 12 13 14 15 16 17 18 19 20 21 22 23 24 25 26 27 28 29 30 31 32 33 34 35 36 37 38 39 40 41 42 43 44 45 46 47 48 49 50
000
ASUS44 KEWX 031110
RWRTX
SOUTH TEXAS REGIONAL WEATHER ROUNDUP
NATIONAL WEATHER SERVICE AUSTIN/SAN ANTONIO TX
500 AM CST TUE MAR 03 2015

NOTE: "FAIR" INDICATED FEW OR NO CLOUDS BELOW 12,000 FEET WITH NO
SIGNIFICANT WEATHER AND/OR OBSTRUCTIONS TO VISIBILITY.

* - THESE STATIONS ARE NOT NWS OR FAA STATIONS...AND ARE NOT SUBJECT
    TO NWS AND FAA QUALITY CONTROL.

TXZ171-172-183>190-031200-
TEXAS HILL COUNTRY AND EDWARDS PLATEAU

CITY           SKY/WX    TMP DP  RH WIND       PRES   REMARKS
JUNCTION       CLOUDY    40  40 100 CALM      30.00F
*LLANO         CLOUDY    41  41 100 CALM      30.06F FOG
BURNET           N/A    N/A N/A N/A MISG      30.04F
*HORSESHOE BAY FOG      N/A N/A N/A CALM      30.04F VSB 1/4
*KERRVILLE     DRIZZLE   43  42  97 CALM      30.01F
*FREDERICKSBRG DRIZZLE   42  41  99 CALM      30.01F
*ROCKSPRINGS   CLOUDY    46  46 100 S5        30.01F FOG     WCI  44
*BOERNE STAGE  CLOUDY    43  43 100 CALM      30.02F VSB 1/4
*CASTROVILLE   FOG       46  46 100 NW5       30.04F VSB 1/2 WCI  44
HONDO          CLOUDY    47  45  93 N3        30.04F
*UVALDE        DRIZZLE   47  46  99 CALM      30.04F
DEL RIO        CLOUDY    48  46  93 SE10      29.98F WCI  43
LAUGHLIN AFB   CLOUDY    48  43  81 SE9       29.99F WCI  44
CARRIZO SPRGS  DRIZZLE   46  46 100 CALM      30.02F
$$

TXZ173-191>194-202-209-217>225-228-031200-
CENTRAL AND SOUTH CENTRAL TEXAS

CITY           SKY/WX    TMP DP  RH WIND       PRES   REMARKS
GEORGETOWN     CLOUDY    41  39  93 NW5       30.04F WCI  38
AUSTIN/BERGSTM FOG       42  42 100 NW3       30.04F VSB 1/2
AUSTIN/MABRY   CLOUDY    42  42 100 NW3       30.05F FOG
*AUSTIN/EXEC   CLOUDY    41  41 100 NW6       30.04F FOG     WCI  37
*LAGO VISTA    FOG       42  40  95 CALM      30.03S VSB 1/2
SAN MARCOS     CLOUDY    43  39  87 N7        30.03F VSB 1   WCI  39
NEW BRAUNFELS  FOG       44  32  62 N5        30.01F VSB 1/2 WCI  42
RANDOLPH AFB   DRIZZLE   45  45 100 NW5       30.01F FOG     WCI  42
PT SAN ANTONIO LGT RAIN  46  46 100 NW5       30.01S VSB 1   WCI  44
SAN ANTONIO    LGT RAIN  47  46  97 W6        30.02F VSB 1   WCI  44
STINSON FIELD  LGT RAIN  46  45  96 CALM      30.01S FOG
*PLEASANTON    RAIN      45  44  97 W6        30.04S WCI  42
*LA GRANGE     FOG       47  47  99 CALM      30.00F VSB 1/2
*GIDDINGS      FOG       45  45  99 CALM      30.05F VSB 1/2
*GONZALES      FOG       46  46  99 N3        30.02S VSB 1/2
$$

TXZ163>164-176>182-195>201-210>213-226-227-235-031200-
SOUTHEAST TEXAS

CITY           SKY/WX    TMP DP  RH WIND       PRES   REMARKS
COLLEGE STN    FOG       45  45 100 CALM      30.04S VSB 1/4
*BRYAN         FOG       46  46 100 CALM      30.05F VSB 1/2
*CALDWELL      FOG       45  45 100 CALM      30.06F VSB 1/2
*CROCKETT      FOG       52  52 100 SE3       30.07S VSB 1/2
*BRENHAM       FOG       48  47  98 CALM      30.04F VSB 1/2
HUNTSVILLE     CLOUDY    53  53 100 SE3       30.02F FOG
CONROE         FOG       54  53  97 E5        30.04F VSB 1/4
HOUSTON BUSH   FOG       57  57 100 E7        30.04F VSB 1/8
HOUSTON HOBBY  FOG       58  58 100 SE5       30.03F VSB 1/2
*HOUSTON SW AP NOT AVBL
PEARLAND       FOG       59  58  96 E7        30.05F VSB 1/2
HOUSTON HOOKS  FOG       55  54  96 CALM      30.03F VSB 1/2
ELLINGTON FLD  FOG       57  57 100 E7        30.06F VSB 1/4
SUGAR LAND     FOG       60  59  96 SE5       30.03F VSB 1/4
*HOUSTON EXEC  FOG       52  52 100 CALM      30.03F VSB 1/4
*CLEVELAND MUN LGT RAIN  54  54 100 CALM      30.05F VSB 1/2
*WHARTON       FOG       52  52  99 CALM      30.02F VSB 1/2
*COLUMBUS      FOG       47  47 100 CALM      30.02F VSB 1/2
$$

TXZ214>216-236>238-031200-
THE UPPER TEXAS COAST

CITY           SKY/WX    TMP DP  RH WIND       PRES   REMARKS
*ORANGE        FOG       56  56 100 NE5       30.08F VSB 1/2
PORT ARTHUR    FOG       58  57  97 E5        30.06F VSB 1/2
GALVESTON      FOG       57  57 100 E3        30.05F VSB 1/2
ANGLETON       FOG       59  59 100 E5        30.03F VSB 1/2
*BAY CITY      FOG       61  61 100 E6        30.01F VSB 1/4
PALACIOS       FOG       57  57 100 NE6       30.01F VSB 1/4
$$

TXZ229>234-239>247-031200-
TEXAS COASTAL BEND AND RIO GRANDE PLAINS

CITY           SKY/WX    TMP DP  RH WIND       PRES   REMARKS
VICTORIA       FOG       51  51 100 E7        30.00F VSB 1/4
*BEEVILLE      DRZL/FOG  50  50 100 NE5       30.00F VSB 1/4 WCI  48
ROCKPORT       FOG       56  55  97 E5        29.99F VSB 1/4
*PORT ARANSAS  FOG       57  57 100 CALM      29.99S VSB 1/4
*PORT LAVACA   NOT AVBL
*INGLESIDE     FOG       28  28  97 N5        29.99S VSB 1/4 WCI  23
CORPUS CHRISTI DRZL/FOG  54  54 100 NE7       29.99F VSB 1/2
CORPUS NAS     FOG       55  55 100 NE5       29.99F VSB 1/4
*ROBSTOWN      NOT AVBL
ALICE          FOG       51  50  96 N5        30.00S VSB 1/2
KINGSVILLE NAS FOG       53  53 100 N5        29.99F VSB 3/4
COTULLA        CLOUDY    48  46  93 N3        30.03S FOG
*FAITH RANCH   CLOUDY    46  46 100 CALM      30.04F
LAREDO         LGT RAIN  48  47  97 CALM      30.04F FOG
$$

TXZ248>255-031200-
DEEP SOUTH TEXAS

CITY           SKY/WX    TMP DP  RH WIND       PRES   REMARKS
BROWNSVILLE    FOG       57  56  96 CALM      30.00S VSB 1/2
PORT ISABEL    FOG       57  57 100 CALM      29.99F VSB 1/2
*SOUTH PADRE     N/A     57  57 100 CALM      29.99S VSB<1/4
HARLINGEN      FOG       55  55 100 W3        29.99F VSB 1/4
*HEBBRONVILLE  HVY RAIN N/A N/A N/A NW5       30.02S
MCALLEN        FOG       53  52  96 CALM      30.01F VSB 3/4
*WESLACO       HVY RAIN  53  51  95 CALM      30.00F VSB 1/2
FALFURRIAS     CLOUDY    51  50  95 W5        30.01S VSB 3/4
EDINBURG       FOG       54  52  94 CALM      30.01F VSB 1/2
*ZAPATA        CLOUDY    50  50 100 NW3       30.01F FOG
$$

TXZ213>215-236>238-242>244-246-247-251-254-255-031200-
CMAN STATIONS

STATION/POSITION TIME  TEMP    WIND        PRES    WAVE
                       AIR SEA DIR/SP/G            HT/PER
                 (UTC) (F)     (DEG/KT/KT) (MB)    (FT/S)
SABINE PASS      1100           70/  5/  7   N/A
SEA RIM ST PARK  1100   58      80/  8/ 10 1018.4
NORTH JETTY/GLS  1100          110/ 10/ 12   N/A
EAGLE POINT      1100          130/  2/  3   N/A
MORGANS POINT    1100           CALM  /  3   N/A
MISSION/ARANSAS  1000   54     VRB  9      1017.0
PORT O`CONNOR    1100          320/  4/  6   N/A
PORT ARANSAS     1100   57 55   20/  5/  5 1015.6
MALAQUITE BEACH  1100          350/  5/  5   N/A
BAFFIN BAY       1100           30/  4/  5   N/A
PORT ISABEL      1100          330/  3/  4   N/A
$$

GMZ080-GMZ150>470-031200-
OFFSHORE BUOY REPORTS

STATION/POSITION TIME  TEMP    WIND        PRES    WAVE
                       AIR SEA DIR/SP/G            HT/PER
                 (UTC) (F)     (DEG/KT/KT) (MB)    (FT/S)
20 E GALVESTON   1100   58 57   80/  8/  8 1017.0    2/ 6
90 E PT ARANSAS  1100   70 69  150/ 10/ 12 1016.8    2/ 8
35 NE PT MANSFLD 1100   68 66  180/  8/  8 1015.2    3/ 8
200 E PT ISABEL  1100   71 71  140/ 10/ 12 1017.7    2/ 7
$$


USA.gov is the U.S. government's official web portal to all federal, state and local government web resources and services.